Weather History for Alexandria Esle, LA

Change the Weather History Date:

Monday, February 18, 2013

  Actual Average Record
Temperature  
Mean Temperature 58 °F -  
Max Temperature 68 °F 62 °F 82 °F (2000)
Min Temperature 48 °F 42 °F 26 °F (1960)
Degree Days  
Heating Degree Days 7    
Growing Degree Days 8 (Base 50)    
Moisture  
Dew Point 55 °F    
Average Humidity 84    
Maximum Humidity 94    
Minimum Humidity 55    
Precipitation  
Precipitation 0.76 in - - ()
Sea Level Pressure  
Sea Level Pressure 29.97 in    
Wind  
Wind Speed 6 mph (SSE)    
Max Wind Speed 17 mph    
Max Gust Speed 26 mph    
Visibility 7 miles    
Events Rain , Thunderstorm    
Averages and records for this station are not official NWS values.
T = Trace of Precipitation, MM = Missing Value Source: NWS Daily Summary

Daily Weather History Graph

Daily Weather History Graph

Search for Another Location

Airport:

Trip Planner

Search our weather history database for the weather conditions in past years. The results will help you decide how hot, cold, wet, or windy it might be!

Date:

Astronomy

Feb. 18, 2013 Rise Set
Actual Time 6:47 AM CST 5:59 PM CST
Civil Twilight 6:22 AM CST 6:23 PM CST
Nautical Twilight 5:54 AM CST 6:52 PM CST
Astronomical Twilight 5:26 AM CST 7:20 PM CST
Moon 11:55 AM CST (2/18) 1:17 AM CST (2/18)
Length of Visible Light 12h 00m
Length of Day
11h 11m
First Quarter, 58% of the Moon is Illuminated
Feb 18
First Quarter
Feb 25
Full
Mar 4
Last Quarter
Mar 11
New
Mar 19
First Quarter

Hourly Weather History & Observations

Time (CST) Temp. Dew Point Humidity Pressure Visibility Wind Dir Wind Speed Gust Speed Precip Events Conditions
12:53 AM 50.0 °F 39.0 °F 66% 30.15 in 10.0 mi Variable 4.6 mph - N/A   Clear
1:53 AM 48.9 °F 39.9 °F 71% 30.13 in 10.0 mi SSE 5.8 mph - N/A   Clear
2:53 AM 48.2 °F 39.2 °F 71% 30.12 in 10.0 mi SSE 5.8 mph - N/A   Clear
3:53 AM 48.9 °F 41.0 °F 74% 30.09 in 10.0 mi SSE 4.6 mph - N/A   Scattered Clouds
4:53 AM 50.0 °F 42.1 °F 74% 30.09 in 10.0 mi SE 4.6 mph - N/A   Overcast
5:53 AM 51.8 °F 42.8 °F 71% 30.09 in 10.0 mi SE 5.8 mph - N/A   Overcast
6:53 AM 52.0 °F 44.1 °F 74% 30.09 in 10.0 mi SSE 8.1 mph - N/A   Overcast
7:53 AM 53.6 °F 44.6 °F 72% 30.10 in 10.0 mi SSE 8.1 mph - N/A   Overcast
8:53 AM 55.9 °F 46.0 °F 69% 30.08 in 10.0 mi SSE 11.5 mph 18.4 mph N/A   Overcast
9:53 AM 60.1 °F 46.9 °F 62% 30.07 in 10.0 mi SSE 13.8 mph 23.0 mph N/A   Overcast
10:53 AM 62.1 °F 48.9 °F 62% 30.06 in 10.0 mi SSE 12.7 mph 19.6 mph N/A   Overcast
11:53 AM 68.0 °F 51.1 °F 55% 30.01 in 10.0 mi South 17.3 mph 25.3 mph N/A   Mostly Cloudy
12:53 PM 68.0 °F 52.0 °F 56% 29.99 in 10.0 mi South 13.8 mph 23.0 mph N/A   Overcast
1:53 PM 64.9 °F 54.0 °F 68% 29.96 in 10.0 mi South 9.2 mph 23.0 mph 0.01 in Rain Light Rain
2:53 PM 66.9 °F 55.9 °F 68% 29.94 in 10.0 mi South 11.5 mph 26.5 mph 0.00 in   Overcast
3:53 PM 64.0 °F 55.9 °F 75% 29.92 in 10.0 mi SSE 6.9 mph - 0.00 in Thunderstorm Overcast
4:12 PM 62.6 °F 57.2 °F 82% 29.93 in 5.0 mi SSE 5.8 mph - 0.03 in Rain , Thunderstorm Rain
4:20 PM 62.6 °F 57.2 °F 82% 29.93 in 5.0 mi SSE 6.9 mph - 0.05 in Rain , Thunderstorm Rain
4:29 PM 62.6 °F 57.2 °F 82% 29.93 in 2.5 mi Variable 3.5 mph - 0.10 in Rain , Thunderstorm Heavy Rain
4:33 PM 60.8 °F 57.2 °F 88% 29.93 in 1.8 mi Calm Calm - 0.13 in Rain Heavy Rain
4:51 PM 60.8 °F 57.2 °F 88% 29.92 in 2.5 mi SE 5.8 mph - 0.24 in Rain Rain
4:53 PM 61.0 °F 57.9 °F 90% 29.92 in 2.5 mi SE 5.8 mph - 0.25 in Rain Rain
5:01 PM 60.8 °F 57.2 °F 88% 29.92 in 3.0 mi East 3.5 mph - 0.04 in Rain Rain
5:13 PM 60.8 °F 59.0 °F 94% 29.93 in 2.0 mi Calm Calm - 0.14 in Rain Heavy Rain
5:16 PM 60.8 °F 59.0 °F 94% 29.94 in 2.5 mi Variable 3.5 mph - 0.18 in Rain Heavy Rain
5:26 PM 60.8 °F 59.0 °F 94% 29.93 in 1.5 mi Calm Calm - 0.29 in Rain Heavy Rain
5:36 PM 60.8 °F 59.0 °F 94% 29.93 in 2.5 mi Calm Calm - 0.32 in Rain Rain
5:41 PM 60.8 °F 59.0 °F 94% 29.93 in 1.5 mi Calm Calm - N/A Rain Heavy Rain
5:53 PM 60.8 °F 59.0 °F 94% 29.92 in 2.0 mi ESE 3.5 mph - N/A Rain Rain
6:02 PM 60.8 °F 59.0 °F 94% 29.92 in 4.0 mi SE 4.6 mph - 0.01 in Rain Rain
6:53 PM 61.0 °F 59.0 °F 93% 29.91 in 6.0 mi SSE 5.8 mph - 0.08 in Rain Rain
7:06 PM 60.8 °F 59.0 °F 94% 29.92 in 5.0 mi South 3.5 mph - N/A Rain Rain
7:18 PM 60.8 °F 59.0 °F 94% 29.92 in 5.0 mi SE 3.5 mph - 0.06 in Rain Rain
7:36 PM 60.8 °F 59.0 °F 94% 29.91 in 8.0 mi SSE 5.8 mph - 0.07 in Rain Light Rain
7:53 PM 61.0 °F 59.0 °F 93% 29.90 in 4.0 mi Variable 3.5 mph - 0.12 in Rain Heavy Rain
8:21 PM 62.6 °F 60.8 °F 94% 29.91 in 10.0 mi South 6.9 mph - 0.05 in   Overcast
8:53 PM 63.0 °F 60.1 °F 90% 29.93 in 7.0 mi West 3.5 mph - 0.08 in Rain Light Rain
8:58 PM 62.6 °F 60.8 °F 94% 29.92 in 1.8 mi Calm Calm - 0.08 in Rain Heavy Rain
9:11 PM 62.6 °F 60.8 °F 94% 29.92 in 2.5 mi South 8.1 mph - 0.20 in Rain Heavy Rain
9:13 PM 62.6 °F 60.8 °F 94% 29.92 in 3.0 mi South 6.9 mph - 0.20 in Rain Rain
9:18 PM 62.6 °F 60.8 °F 94% 29.93 in 6.0 mi SW 5.8 mph - 0.20 in Rain Light Rain
9:28 PM 62.6 °F 60.8 °F 94% 29.92 in 10.0 mi Variable 3.5 mph - 0.20 in   Overcast
9:36 PM 62.6 °F 60.8 °F 94% 29.92 in 10.0 mi South 4.6 mph - 0.20 in   Mostly Cloudy
9:40 PM 62.6 °F 60.8 °F 94% 29.92 in 10.0 mi South 4.6 mph - 0.20 in   Mostly Cloudy
9:53 PM 63.0 °F 61.0 °F 93% 29.91 in 10.0 mi SSW 4.6 mph - 0.20 in   Partly Cloudy
10:27 PM 62.6 °F 60.8 °F 94% 29.92 in 10.0 mi Calm Calm - N/A   Mostly Cloudy
10:50 PM 62.6 °F 60.8 °F 94% 29.95 in 10.0 mi Variable 6.9 mph - 0.00 in Rain Light Rain
10:53 PM 63.0 °F 59.0 °F 87% 29.96 in 10.0 mi Variable 6.9 mph 16.1 mph 0.00 in Rain Light Rain
11:01 PM 62.6 °F 57.2 °F 82% 29.96 in 10.0 mi WNW 8.1 mph 19.6 mph 0.01 in Rain Light Rain
11:53 PM 57.9 °F 55.0 °F 90% 29.98 in 10.0 mi West 5.8 mph - 0.02 in   Clear